Date String (YYYY-MM-DD hh:mm:ss) UTC,Instrument flags,Ambient pressure (hPa),Sample flow (lpm),Bypass flow (lpm),Sample temperature (°C),Ambient temperature (°C),ASC tube jacket temperature (°C),LED temperature (°C),Box temperature (°C),Sample RH (%),Span deviation,Mass concentration (μg/m³),Mass concentration (μg/m³),Mass concentration (μg/m³)
DateTimeUTC,F1_M11,P_M11,Q1_M11,Q2_M11,T1_M11,T2_M11,T3_M11,T4_M11,T5_M11,U1_M11,ZSPAN_M11,X2_M11,X0_M11,X1_M11
2021-10-10 07:00:00,,0822.6,5.00,0.00,29.1,28.2,00.0,38.2,30.9,10.5,0000.0,0001.57,0002.74,0001.30
2021-10-10 07:01:00,,0822.6,5.00,0.00,29.1,28.2,00.0,38.2,30.9,10.5,0000.0,0001.58,0002.77,0001.31
2021-10-10 07:02:00,,0822.6,5.00,0.00,29.1,28.2,00.0,38.2,30.9,10.5,0000.0,0001.58,0002.83,0001.30
2021-10-10 07:03:00,,0822.6,5.00,0.00,29.1,28.2,00.0,38.2,30.9,10.5,0000.0,0001.59,0002.92,0001.29
2021-10-10 07:04:00,,0822.6,5.00,0.00,29.1,28.1,00.0,38.2,30.9,10.5,0000.0,0001.61,0003.00,0001.30
2021-10-10 07:05:00,,0822.6,5.00,0.00,29.1,28.1,00.0,38.2,30.8,10.5,0000.0,0001.61,0003.01,0001.29
2021-10-10 07:06:00,,0822.6,5.00,0.00,29.1,28.2,00.0,38.2,30.9,10.5,0000.0,0001.58,0002.93,0001.29
2021-10-10 07:07:00,,0822.6,4.99,0.00,29.1,28.2,00.0,38.2,30.8,10.5,0000.0,0001.55,0002.85,0001.27
2021-10-10 07:08:00,,0822.6,5.01,0.00,29.1,28.2,00.0,38.2,30.8,10.5,0000.0,0001.52,0002.80,0001.27
2021-10-10 07:09:00,,0822.6,5.00,0.00,29.1,28.2,00.0,38.2,30.8,10.5,0000.0,0001.51,0002.66,0001.27
2021-10-10 07:10:00,,0822.6,5.00,0.00,29.1,28.2,00.0,38.2,30.8,10.5,0000.0,0001.54,0002.27,0001.28
2021-10-10 07:11:00,,0822.7,5.01,0.00,29.1,28.2,00.0,38.2,30.8,10.5,0000.0,0001.58,0002.35,0001.28
2021-10-10 07:12:00,,0822.7,5.00,0.00,29.1,28.2,00.0,38.2,30.9,10.5,0000.0,0001.58,0002.34,0001.28
2021-10-10 07:13:00,,0822.7,5.01,0.00,29.1,28.2,00.0,38.2,30.9,10.5,0000.0,0001.60,0002.34,0001.29
2021-10-10 07:14:00,,0822.6,4.99,0.00,29.0,28.2,00.0,38.2,30.8,10.5,0000.0,0001.61,0002.31,0001.29
2021-10-10 07:15:00,,0822.6,5.01,0.00,29.0,28.1,00.0,38.2,30.8,10.5,0000.0,0001.62,0002.25,0001.30
2021-10-10 07:16:00,,0822.6,5.01,0.00,29.0,28.1,00.0,38.2,30.8,10.5,0000.0,0001.62,0002.22,0001.30
2021-10-10 07:17:00,,0822.6,5.00,0.00,29.0,28.1,00.0,38.2,30.8,10.5,0000.0,0001.61,0002.20,0001.30
2021-10-10 07:18:00,,0822.6,5.00,0.00,29.0,28.1,00.0,38.2,30.8,10.5,0000.0,0001.61,0002.18,0001.30
2021-10-10 07:19:00,,0822.6,5.00,0.00,29.0,28.1,00.0,38.2,30.8,10.5,0000.0,0001.60,0002.17,0001.30
2021-10-10 07:20:00,,0822.7,5.01,0.00,29.1,28.1,00.0,38.2,30.8,10.5,0000.0,0001.61,0002.28,0001.30
2021-10-10 07:21:00,,0822.6,5.00,0.00,29.1,28.1,00.0,38.2,30.8,10.5,0000.0,0001.58,0002.20,0001.30
2021-10-10 07:22:00,,0822.6,4.99,0.00,29.1,28.1,00.0,38.2,30.8,10.5,0000.0,0001.54,0002.10,0001.29
2021-10-10 07:23:00,,0822.6,5.01,0.00,29.1,28.2,00.0,38.2,30.8,10.5,0000.0,0001.51,0002.06,0001.28
2021-10-10 07:24:00,,0822.6,5.01,0.00,29.1,28.2,00.0,38.2,30.8,10.5,0000.0,0001.46,0001.96,0001.28
2021-10-10 07:25:00,,0822.6,5.00,0.00,29.1,28.2,00.0,38.2,30.8,10.4,0000.0,0001.45,0001.95,0001.27
2021-10-10 07:26:00,,0822.6,4.99,0.00,29.1,28.2,00.0,38.2,30.8,10.2,0000.0,0001.46,0002.13,0001.26
2021-10-10 07:27:00,,0822.6,4.99,0.00,29.1,28.2,00.0,38.2,30.9,10.2,0000.0,0001.46,0002.23,0001.24
2021-10-10 07:28:00,,0822.6,5.00,0.00,29.1,28.2,00.0,38.2,30.9,10.0,0000.0,0001.48,0002.29,0001.24
2021-10-10 07:29:00,,0822.6,4.99,0.00,29.1,28.2,00.0,38.2,30.9,10.0,0000.0,0001.46,0002.30,0001.21
2021-10-10 07:30:00,,0822.6,5.02,0.00,29.1,28.2,00.0,38.2,30.9,10.0,0000.0,0001.44,0002.35,0001.19
2021-10-10 07:31:00,,0822.6,5.00,0.00,29.1,28.2,00.0,38.2,30.9,10.1,0000.0,0001.42,0002.23,0001.17
2021-10-10 07:32:00,,0822.6,5.00,0.00,29.1,28.2,00.0,38.2,30.9,10.1,0000.0,0001.45,0002.37,0001.16
2021-10-10 07:33:00,,0822.7,5.00,0.00,29.1,28.2,00.0,38.2,30.9,10.2,0000.0,0001.44,0002.40,0001.15
2021-10-10 07:34:00,,0822.7,5.00,0.00,29.1,28.2,00.0,38.2,30.8,10.2,0000.0,0001.47,0002.50,0001.14
2021-10-10 07:35:00,,0822.7,5.00,0.00,29.1,28.2,00.0,38.2,30.9,10.3,0000.0,0001.47,0002.56,0001.13
2021-10-10 07:36:00,,0822.6,4.99,0.00,29.1,28.2,00.0,38.2,30.9,10.3,0000.0,0001.45,0002.53,0001.13
2021-10-10 07:37:00,,0822.7,5.00,0.00,29.1,28.2,00.0,38.2,30.9,10.2,0000.0,0001.38,0002.23,0001.12
2021-10-10 07:38:00,,0822.7,5.01,0.00,29.1,28.1,00.0,38.2,30.9,10.3,0000.0,0001.35,0002.12,0001.11
2021-10-10 07:39:00,,0822.6,5.00,0.00,29.1,28.1,00.0,38.2,30.8,10.2,0000.0,0001.33,0002.06,0001.11
2021-10-10 07:40:00,,0822.6,5.00,0.00,29.1,28.2,00.0,38.2,30.8,10.2,0000.0,0001.35,0002.07,0001.12
2021-10-10 07:41:00,,0822.6,5.00,0.00,29.1,28.2,00.0,38.2,30.8,10.2,0000.0,0001.39,0002.07,0001.14
2021-10-10 07:42:00,,0822.6,5.00,0.00,29.1,28.2,00.0,38.2,30.9,10.2,0000.0,0001.42,0002.12,0001.15
2021-10-10 07:43:00,,0822.6,4.99,0.00,29.1,28.2,00.0,38.2,30.9,10.2,0000.0,0001.37,0001.96,0001.14
2021-10-10 07:44:00,,0822.7,4.98,0.00,29.1,28.2,00.0,38.2,30.9,10.3,0000.0,0001.37,0001.95,0001.15
2021-10-10 07:45:00,,0822.6,4.99,0.00,29.1,28.2,00.0,38.2,30.9,10.3,0000.0,0001.34,0001.86,0001.14
2021-10-10 07:46:00,,0822.7,4.99,0.00,29.1,28.2,00.0,38.2,30.9,10.3,0000.0,0001.31,0001.74,0001.14
2021-10-10 07:47:00,,0822.6,5.00,0.00,29.1,28.2,00.0,38.2,30.9,10.2,0000.0,0001.32,0001.76,0001.14
2021-10-10 07:48:00,,0822.7,4.99,0.00,29.1,28.2,00.0,38.2,30.9,10.3,0000.0,0001.38,0002.62,0001.15
2021-10-10 07:49:00,,0822.6,4.99,0.00,29.1,28.2,00.0,38.2,30.9,10.3,0000.0,0001.39,0002.64,0001.16
2021-10-10 07:50:00,,0822.7,5.00,0.00,29.1,28.2,00.0,38.3,30.9,10.3,0000.0,0001.41,0002.71,0001.16
2021-10-10 07:51:00,,0822.7,5.00,0.00,29.1,28.2,00.0,38.3,30.9,10.3,0000.0,0001.42,0002.72,0001.16
2021-10-10 07:52:00,,0822.7,5.00,0.00,29.1,28.2,00.0,38.3,30.8,10.3,0000.0,0001.38,0002.62,0001.15
2021-10-10 07:53:00,,0822.7,5.01,0.00,29.1,28.2,00.0,38.3,30.9,10.3,0000.0,0001.38,0002.62,0001.15
2021-10-10 07:54:00,,0822.7,5.01,0.00,29.1,28.2,00.0,38.3,30.9,10.3,0000.0,0001.40,0002.65,0001.15
2021-10-10 07:55:00,,0822.7,4.99,0.00,29.1,28.2,00.0,38.3,30.9,10.3,0000.0,0001.39,0002.62,0001.15
2021-10-10 07:56:00,,0822.8,5.01,0.00,29.1,28.2,00.0,38.3,30.9,10.4,0000.0,0001.40,0002.64,0001.15
2021-10-10 07:57:00,,0822.8,5.01,0.00,29.1,28.2,00.0,38.3,30.8,10.4,0000.0,0001.44,0002.75,0001.16
2021-10-10 07:58:00,,0822.8,5.00,0.00,29.1,28.1,00.0,38.3,30.9,10.4,0000.0,0001.47,0002.83,0001.17
2021-10-10 07:59:00,,0822.8,5.00,0.00,29.1,28.1,00.0,38.3,30.8,10.4,0000.0,0001.45,0002.24,0001.16
